Погода в Сан-Джиминьяно

Италия     43°28′07″N   11°02′34″E
темп.,
°C
ветер,
м/с
пор.,
м/с
влажн.,
%
обл.,
%
осадки,
мм/ч
давл.,
гПа
погр.,
м
18 мая, вт
вт1823:00+10ююв22900 0.0 101316
02:00+9юв33910 0.0 101432
05:00+8юв21929 0.0 101411
08:00+13вюв2282100 0.0 1015181
11:00+18зсз255515 0.0 10151553
14:00+20з6937100 0.0 10141962
17:00+18зюз711473 0.0 10141761
20:00+13сз22666 0.0 101313
19 мая, ср
ср1923:00+12зюз3979100 0.0 1014325
02:00+14з91476100 0.0 10131094
05:00+12з6139030 0.7 1013777
08:00+13з5886100 0.8 1014763
11:00+16з336671 0.2 10151268
14:00+16ссв217226 0.6 1014705
17:00+18в116235 0.5 10131077
20:00+14з33858 1.8 101459
20 мая, чт
чт2023:00+10ююз119699 1.8 101510
02:00+10ююв339528 3.3 101555
05:00+8в11915 0.1 101610
08:00+12св11832 0.1 1017143
11:00+17ссв33634 0.0 1017792
14:00+20с22455 0.0 10171608
17:00+20сз444531 0.0 10171710
20:00+14юв347714 0.1 101968
21 мая, пт
пт2123:00+11ююв22720 0.0 102112
02:00+10вюв1173100 0.0 102210
05:00+9юв2274100 0.0 102110
08:00+13юв126850 0.0 1021128
11:00+19зюз2353100 0.0 1021924
14:00+21з45435 0.0 10191951
17:00+20з66485 0.0 10181376
20:00+15зюз2274100 0.0 101836
22 мая, сб
сб2223:00+11ю2281100 0.0 101811
02:00+10юв228791 0.0 101621
05:00+9юв2293100 0.0 101523
08:00+13юв368014 0.0 1015238
11:00+19ю694970 0.0 10131452
14:00+22ююз9114525 0.0 10121588
17:00+20ююз796026 0.0 10121320
20:00+17ююз5979100 0.1 1013804